�������ċp�F�����K�X���j�^�v���󋵏��
Date,Time,�ċp�F�����K�X���j�^(cps),����,����(m/s)
2022/06/25,00:00,1.3,��,1.2
2022/06/25,00:10,1.4,��,1.1
2022/06/25,00:20,1.4,���k��,1.2
2022/06/25,00:30,1.5,�k�k��,1.7
2022/06/25,00:40,1.5,�k�k��,2.3
2022/06/25,00:50,1.5,�k�k��,1.7
2022/06/25,01:00,1.4,���k��,0.9
2022/06/25,01:10,1.4,���쓌,1.2
2022/06/25,01:20,1.4,��,1.4
2022/06/25,01:30,1.5,�쓌,1.4
2022/06/25,01:40,1.5,�쓌,2.0
2022/06/25,01:50,1.4,��쓌,1.4
2022/06/25,02:00,1.5,��쓌,1.4
2022/06/25,02:10,1.4,��쓌,3.1
2022/06/25,02:20,1.4,��,3.5
2022/06/25,02:30,1.4,��,3.8
2022/06/25,02:40,1.5,��,3.7
2022/06/25,02:50,1.4,��,4.0
2022/06/25,03:00,1.6,��,5.7
2022/06/25,03:10,1.4,��,6.0
2022/06/25,03:20,1.6,��쐼,5.1
2022/06/25,03:30,1.5,��쐼,4.7
2022/06/25,03:40,1.6,��쐼,4.4
2022/06/25,03:50,1.5,��쐼,3.6
2022/06/25,04:00,1.5,��,1.5
2022/06/25,04:10,1.5,�k��,2.8
2022/06/25,04:20,1.4,���k��,3.4
2022/06/25,04:30,1.5,���k��,2.3
2022/06/25,04:40,1.4,��,4.1
2022/06/25,04:50,1.5,���쐼,2.3
2022/06/25,05:00,1.5,���쐼,1.7
2022/06/25,05:10,1.4,���k��,3.2
2022/06/25,05:20,1.4,�k��,4.5
2022/06/25,05:30,1.5,��,5.7
2022/06/25,05:40,1.4,��,4.2
2022/06/25,05:50,1.4,���k��,4.6
2022/06/25,06:00,1.5,�k��,5.0
2022/06/25,06:10,1.4,�k��,4.5
2022/06/25,06:20,1.4,�k�k��,4.2
2022/06/25,06:30,1.4,�k,3.4
2022/06/25,06:40,1.6,-,CALM
2022/06/25,06:50,1.5,�k��,0.6
2022/06/25,07:00,1.4,���k��,4.1
2022/06/25,07:10,1.4,��,6.9
2022/06/25,07:20,1.6,��,7.3
2022/06/25,07:30,1.5,���k��,7.5
2022/06/25,07:40,1.4,���k��,5.7
2022/06/25,07:50,1.5,���k��,6.2
2022/06/25,08:00,1.4,��,6.4
2022/06/25,08:10,1.4,���k��,8.1
2022/06/25,08:20,1.5,���k��,9.7
2022/06/25,08:30,1.5,���k��,6.9
2022/06/25,08:40,1.5,���k��,6.9
2022/06/25,08:50,1.5,���k��,5.3
2022/06/25,09:00,1.5,��,4.5
2022/06/25,09:10,1.5,��,5.5
2022/06/25,09:20,1.4,��,6.2
2022/06/25,09:30,1.5,��,6.5
2022/06/25,09:40,1.5,��,6.2
2022/06/25,09:50,1.5,��,5.1
2022/06/25,10:00,1.5,��,4.8
2022/06/25,10:10,1.5,��,5.0
2022/06/25,10:20,1.5,�쐼,2.8
2022/06/25,10:30,1.5,��쓌,6.0
2022/06/25,10:40,1.4,��,5.6
2022/06/25,10:50,1.5,��,5.5
2022/06/25,11:00,1.5,��,5.9
2022/06/25,11:10,1.5,��,6.9
2022/06/25,11:20,1.4,��쓌,5.8
2022/06/25,11:30,1.4,��쓌,7.2
2022/06/25,11:40,1.5,��,6.0
2022/06/25,11:50,1.4,��,6.4
2022/06/25,12:00,1.5,��,7.1
2022/06/25,12:10,1.5,��쓌,7.0
2022/06/25,12:20,1.4,��쓌,7.1
2022/06/25,12:30,1.5,��,6.3
2022/06/25,12:40,1.5,��쓌,6.0
2022/06/25,12:50,1.5,��쓌,6.9
2022/06/25,13:00,1.4,��,6.9
2022/06/25,13:10,1.4,��,6.5
2022/06/25,13:20,1.5,��쓌,6.6
2022/06/25,13:30,1.4,��,7.7
2022/06/25,13:40,1.5,��쓌,7.2
2022/06/25,13:50,1.5,��,9.1
2022/06/25,14:00,1.5,��,6.2
2022/06/25,14:10,1.4,��쓌,7.7
2022/06/25,14:20,1.5,��쓌,9.0
2022/06/25,14:30,1.5,��쓌,8.1
2022/06/25,14:40,1.6,��쓌,7.7
2022/06/25,14:50,1.4,��,6.7
2022/06/25,15:00,1.5,��,5.3
2022/06/25,15:10,1.5,��쓌,6.6
2022/06/25,15:20,1.5,��쓌,7.7
2022/06/25,15:30,1.5,��쓌,7.2
2022/06/25,15:40,1.4,��쓌,5.7
2022/06/25,15:50,1.5,��쓌,5.7
2022/06/25,16:00,1.4,��쓌,4.5
2022/06/25,16:10,1.4,��쓌,3.5
2022/06/25,16:20,1.4,��쓌,4.4
2022/06/25,16:30,1.4,��쓌,3.6
2022/06/25,16:40,1.6,��쓌,3.9
2022/06/25,16:50,1.4,��,2.3
2022/06/25,17:00,1.4,�k�k��,0.6
2022/06/25,17:10,1.4,�k,1.1
2022/06/25,17:20,1.4,-,CALM
2022/06/25,17:30,1.4,�k�k��,1.5
2022/06/25,17:40,1.5,-,CALM
2022/06/25,17:50,1.5,�k�k��,1.1
2022/06/25,18:00,1.4,�k�k��,2.5
2022/06/25,18:10,1.5,�k�k��,2.0
2022/06/25,18:20,1.4,�k�k��,2.6
2022/06/25,18:30,1.5,�k,2.6
2022/06/25,18:40,1.5,�k�k��,4.7
2022/06/25,18:50,1.4,�k��,2.3
2022/06/25,19:00,1.5,�k��,1.5
2022/06/25,19:10,1.5,��,0.8
2022/06/25,19:20,1.5,��,0.9
2022/06/25,19:30,1.5,�쐼,0.6
2022/06/25,19:40,1.4,��,1.5
2022/06/25,19:50,1.4,���k��,2.3
2022/06/25,20:00,1.5,�k��,3.3
2022/06/25,20:10,1.4,�k�k��,3.6
2022/06/25,20:20,1.4,�k�k��,4.7
2022/06/25,20:30,1.5,�k��,4.5
2022/06/25,20:40,1.4,�k��,3.4
2022/06/25,20:50,1.5,�k��,4.0
2022/06/25,21:00,1.5,�k��,4.6
2022/06/25,21:10,1.5,�k��,4.1
2022/06/25,21:20,1.4,�k��,3.7
2022/06/25,21:30,1.5,���k��,3.3
2022/06/25,21:40,1.4,���k��,3.7
2022/06/25,21:50,1.5,���k��,4.3
2022/06/25,22:00,1.5,���k��,2.6
2022/06/25,22:10,1.5,�k��,2.0
2022/06/25,22:20,1.4,��,2.6
2022/06/25,22:30,1.5,���k��,3.1
2022/06/25,22:40,1.4,���k��,3.8
2022/06/25,22:50,1.5,���k��,3.9
2022/06/25,23:00,1.5,���k��,3.4
2022/06/25,23:10,1.4,���k��,3.3
2022/06/25,23:20,1.4,���k��,3.1
2022/06/25,23:30,1.4,���k��,2.2
2022/06/25,23:40,1.4,���k��,1.2
2022/06/25,23:50,1.4,�k�k��,0.9
